Salisbury, MD

12:47 AM EDT on August 31, 2016 (GMT -0400)
Salisbury-Ocean City Wicomico Regional

Weather History for KSBY - September, 2014

Change the Weather History Date:

Tuesday, September 23, 2014

  Actual Average Record
Temperature  
Mean Temperature 59 °F 66 °F  
Max Temperature 68 °F 76 °F 98 °F (1914)
Min Temperature 49 °F 55 °F 39 °F (1918)
Degree Days  
Heating Degree Days 6 2  
Month to date heating degree days 6 21  
Since 1 July heating degree days 6 23  
Cooling Degree Days 0 3  
Month to date cooling degree days 192 126  
Year to date cooling degree days 1314 1109  
Growing Degree Days 7 (Base 50)    
Moisture  
Dew Point 46 °F    
Average Humidity 64    
Maximum Humidity 80    
Minimum Humidity 48    
Precipitation  
Precipitation 0.00 in 0.14 in 1.52 in (1924)
Month to date precipitation 3.03 3.04  
Year to date precipitation 23.31 34.11  
Snow  
Snow 0.00 in 0.00 in 0.00 in (2002)
Month to date snowfall 0.0 0.0  
Since 1 July snowfall 0.0 0.0  
Snow Depth 0.00 in    
Sea Level Pressure  
Sea Level Pressure 30.32 in    
Wind  
Wind Speed 4 mph (North)    
Max Wind Speed 10 mph    
Max Gust Speed 15 mph    
Visibility 10 miles    
Events      
T = Trace of Precipitation, MM = Missing Value Source: NWS Daily Summary

Daily Weather History Graph

Daily Weather History Graph

Search for Another Location

Airport or City:

Trip Planner

Search our weather history database for the weather conditions in past years. The results will help you decide how hot, cold, wet, or windy it might be!

Date:

Astronomy

Sep. 23, 2014 Rise Set
Actual Time 6:50 AM EDT 6:57 PM EDT
Civil Twilight 6:24 AM EDT 7:23 PM EDT
Nautical Twilight 5:53 AM EDT 7:54 PM EDT
Astronomical Twilight 5:22 AM EDT 8:25 PM EDT
Moon 6:12 AM EDT (9/23) 6:35 PM EDT (9/23)
Length of Visible Light 12h 59m
Length of Day
12h 06m
Waning Crescent, 0% of the Moon is Illuminated
Sep 23
Waning Crescent
Sep 24
New
Oct 1
First Quarter
Oct 8
Full
Oct 15
Last Quarter

Hourly Weather History & Observations

Time (EDT) Temp. Dew Point Humidity Pressure Visibility Wind Dir Wind Speed Gust Speed Precip Events Conditions
12:54 AM 57.9 °F 46.0 °F 65% 30.22 in 10.0 mi NNE 4.6 mph - N/A   Clear
1:54 AM 55.9 °F 46.0 °F 69% 30.22 in 10.0 mi North 6.9 mph - N/A   Clear
2:54 AM 54.0 °F 45.0 °F 72% 30.23 in 10.0 mi North 5.8 mph - N/A   Clear
3:54 AM 54.0 °F 44.1 °F 69% 30.24 in 10.0 mi North 6.9 mph - N/A   Clear
4:54 AM 54.0 °F 43.0 °F 66% 30.25 in 10.0 mi North 9.2 mph - N/A   Clear
5:54 AM 52.0 °F 43.0 °F 71% 30.28 in 10.0 mi NNW 4.6 mph - N/A   Clear
6:54 AM 48.9 °F 43.0 °F 80% 30.29 in 10.0 mi NW 3.5 mph - N/A   Clear
7:54 AM 53.1 °F 44.1 °F 71% 30.31 in 10.0 mi NNW 6.9 mph - N/A   Clear
8:54 AM 55.9 °F 45.0 °F 67% 30.33 in 10.0 mi North 5.8 mph - N/A   Clear
9:54 AM 60.1 °F 45.0 °F 57% 30.34 in 10.0 mi Calm Calm - N/A   Clear
10:54 AM 64.0 °F 45.0 °F 50% 30.35 in 10.0 mi NE 8.1 mph - N/A   Clear
11:54 AM 64.0 °F 44.1 °F 48% 30.35 in 10.0 mi Calm Calm - N/A   Clear
12:54 PM 64.9 °F 46.0 °F 50% 30.36 in 10.0 mi NNE 3.5 mph - N/A   Clear
1:54 PM 66.0 °F 46.0 °F 48% 30.35 in 10.0 mi NNW 5.8 mph - N/A   Clear
2:54 PM 66.9 °F 46.9 °F 49% 30.33 in 10.0 mi North 6.9 mph - N/A   Clear
3:54 PM 66.0 °F 46.9 °F 50% 30.32 in 10.0 mi NE 4.6 mph - N/A   Clear
4:54 PM 66.0 °F 46.9 °F 50% 30.32 in 10.0 mi NE 6.9 mph - N/A   Clear
5:54 PM 66.0 °F 48.9 °F 54% 30.34 in 10.0 mi ENE 5.8 mph - N/A   Clear
6:54 PM 62.1 °F 48.0 °F 60% 30.34 in 10.0 mi ENE 3.5 mph - N/A   Clear
7:54 PM 59.0 °F 48.9 °F 69% 30.35 in 10.0 mi NE 4.6 mph - N/A   Clear
8:54 PM 57.9 °F 48.0 °F 70% 30.36 in 10.0 mi Calm Calm - N/A   Clear
9:54 PM 55.9 °F 48.0 °F 75% 30.37 in 10.0 mi North 3.5 mph - N/A   Clear
10:54 PM 55.9 °F 48.9 °F 77% 30.37 in 10.0 mi Calm Calm - N/A   Clear
11:54 PM 57.0 °F 48.9 °F 74% 30.38 in 10.0 mi Calm Calm - N/A   Clear